Regional Weather Roundup
Issued by NWS Memphis, TN

Home | Current Version | Previous Version | Text Only | Print | Product List | Glossary On
Versions: 1 2 3 4 5 6 7 8 9 10 11 12 13 14 15 16 17 18 19 20 21 22 23 24 25 26 27 28 29 30 31 32 33 34 35 36 37 38 39 40 41 42 43 44 45 46 47 48 49 50
000
ASUS44 KMEG 010800
RWRMEG
MEMPHIS CWA HOURLY WEATHER ROUNDUP
NATIONAL WEATHER SERVICE MEMPHIS TN
300 AM CDT WED JUN 01 2016

...WEST TENNESSEE...

CITY           SKY/WX    TMP DP  RH WIND       PRES   REMARKS
MEMPHIS INTL   PTCLDY    74  68  81 CALM      29.91F
NWS MEMPHIS      N/A     70 N/A N/A MISG        N/A
JACKSON        CLEAR     65  64  97 CALM      29.93S
LEXINGTON      MOCLDY    64  64 100 CALM      29.93S
DYERSBURG      CLEAR     70  66  88 CALM      29.92S
UNION CITY     CLEAR     68  68 100 CALM      29.91S
PARIS          CLEAR     64  63  94 CALM      29.94S


...EASTERN ARKANSAS...

CITY           SKY/WX    TMP DP  RH WIND       PRES   REMARKS
JONESBORO      CLEAR     70  68  93 CALM      29.90F
WEST MEMPHIS   PTCLDY    73  71  93 S3        29.90S
BATESVILLE     CLOUDY    66  64  94 CALM      29.92S VSB 1/4
NEWPORT        PTCLDY    72  72 100 CALM      29.92S FOG
WALNUT RIDGE   CLEAR     72  68  88 CALM      29.91S
BLYTHEVILLE    CLEAR     72  68  87 S3        29.92S
SEARCY         CLOUDY    69  69 100 W3        29.93S FOG
STUTTGART      PTCLDY    72  64  78 W6        29.91S
PINE BLUFF     CLOUDY    71  70  96 CALM      29.91S FOG
MONTICELLO     CLOUDY    73  70  90 CALM      29.91S


...NORTH MISSISSIPPI...

CITY           SKY/WX    TMP DP  RH WIND       PRES   REMARKS
TUPELO         CLEAR     70  66  87 CALM      29.93S
OLIVE BRANCH   PTCLDY    70  70 100 CALM      29.92F
TUNICA         CLEAR     70  68  94 SE5       29.92F
CLARKSDALE     CLEAR     72  72 100 CALM      29.91F
GREENWOOD      CLEAR     67  65  93 NW3       29.92S
STARKVILLE     CLOUDY    68  66  94 CALM      29.92S
GOLDEN TRIANGL CLOUDY   N/A N/A N/A CALM      29.92F


...SOUTHEAST MISSOURI...

CITY           SKY/WX    TMP DP  RH WIND       PRES   REMARKS
KENNETT        CLEAR     72  70  94 CALM      29.90S
WEST PLAINS    MOCLDY    66  62  87 CALM      29.95F
POPLAR BLUFF   PTCLDY    69  67  93 CALM      29.92R
CAPE GIRARDEAU CLOUDY    70  67  90 CALM      29.91F


...NORTHWEST ALABAMA...

CITY           SKY/WX    TMP DP  RH WIND       PRES   REMARKS
MUSCLE SHOALS  CLEAR     69  64  84 CALM      29.96F


...MIDDLE TENNESSEE...

CITY           SKY/WX    TMP DP  RH WIND       PRES   REMARKS
NASHVILLE      CLOUDY    69  63  81 CALM      29.95S
CLARKSVILLE    CLOUDY    68  65  90 CALM      29.94F
COLUMBIA       CLEAR    N/A N/A N/A CALM      29.94S


...WESTERN KENTUCKY...

CITY           SKY/WX    TMP DP  RH WIND       PRES   REMARKS
PADUCAH        CLOUDY    68  65  90 CALM      29.91F


...CENTRAL ARKANSAS...

CITY           SKY/WX    TMP DP  RH WIND       PRES   REMARKS
LITTLE ROCK    CLOUDY    72  67  84 NE3       29.91F


SKY/WX REPORTED AS FAIR MEANS FEW OR NO CLOUDS BELOW
12 THOUSAND FEET.





USA.gov is the U.S. government's official web portal to all federal, state and local government web resources and services.